{"data":{"norad_id":60140,"epoch":"2026-09-21T20:18:24.001632Z","epoch_age_seconds":65141,"freshness":"FRESH","line1":"1 60140U 24120F   26264.84611113  .00000493  00000+0  25730-4 0  9991","line2":"2 60140  53.1589 125.6072 0001208  98.9375 261.1765 15.34382273126532","mean_motion":15.34382273,"eccentricity":0.0001208,"inclination_deg":53.1589,"raan_deg":125.6072,"arg_perigee_deg":98.9375,"mean_anomaly_deg":261.1765,"bstar":2.573e-5,"rev_number":12653,"period_min":93.848842321707,"perigee_km":461.92954922833,"apogee_km":463.58230896,"semimajor_km":6840.8929290942,"source":"CELESTRAK","updated_at":"2026-09-22T09:00:49.177074Z"}}